Location: Biltmore Gardens
(41.6070°N, 83.4666°W)
Time: 15:15:11
(UTC+00:00)

Meteor 1-28 Rocket - Pass Details

Date: 14 July 2020
Orbit: 505 x 522 km, 97.3° (Epoch: 13 August)

Event Time Altitude Azimuth Distance (km) Brightness Sun altitude
Exits shadow 08:51:07 15° 188° (S) 1,435 5.0 -12.9°
Maximum altitude 08:54:00 50° 260° (W) 656 3.4 -12.5°
Drops below altitude 10° 08:57:39 10° 337° (NNW) 1,737 6.1 -12.0°
Sets 08:59:48 0° 343° (NNW) 2,630 7.2 -11.7°
